| time (UTC) | temp F | wind direction | speed knots | gust knots | rain 1hr in | rain 24hr in | rain mn in | humidity % | barometer mb |
| 20260510164205 | 59 | 288 | 2.6 | 8.7 | 0.00 | 0.34 | 0.00 | 48 | 1018.2 |
| 20260510163704 | 60 | 297 | 5.2 | 8.7 | 0.00 | 0.34 | 0.00 | 53 | 1018.2 |
| 20260510162705 | 59 | 17 | 1.7 | 8.7 | 0.00 | 0.34 | 0.00 | 51 | 1017.9 |
| 20260510162205 | 59 | 29 | 2.6 | 7.0 | 0.00 | 0.34 | 0.00 | 52 | 1017.9 |
| 20260510161705 | 59 | 32 | 4.3 | 7.8 | 0.00 | 0.34 | 0.00 | 49 | 1017.9 |
| 20260510160704 | 59 | 356 | 4.3 | 7.0 | 0.00 | 0.34 | 0.00 | 53 | 1017.9 |
| 20260510154706 | 58 | 37 | 3.5 | 6.1 | 0.00 | 0.34 | 0.00 | 56 | 1017.7 |
| 20260510153705 | 58 | 51 | 3.5 | 7.8 | 0.00 | 0.34 | 0.00 | 52 | 1017.7 |
| 20260510153205 | 57 | 19 | 3.5 | 10.4 | 0.00 | 0.34 | 0.00 | 55 | 1017.7 |
| 20260510152204 | 56 | 324 | 1.7 | 5.2 | 0.00 | 0.34 | 0.00 | 54 | 1017.7 |
| 20260510151704 | 56 | 342 | 3.5 | 7.0 | 0.00 | 0.34 | 0.00 | 55 | 1017.5 |
| 20260510151205 | 56 | 0 | 4.3 | 7.8 | 0.00 | 0.34 | 0.00 | 55 | 1017.3 |
| 20260510150704 | 56 | 9 | 3.5 | 8.7 | 0.00 | 0.34 | 0.00 | 53 | 1017.3 |
| 20260510150205 | 56 | 42 | 3.5 | 7.8 | 0.00 | 0.34 | 0.00 | 55 | 1017.3 |
| 20260510145705 | 56 | 37 | 5.2 | 10.4 | 0.00 | 0.34 | 0.00 | 55 | 1017.3 |
| 20260510145205 | 56 | 36 | 5.2 | 10.4 | 0.00 | 0.34 | 0.00 | 54 | 1017.3 |
| 20260510144705 | 56 | 15 | 3.5 | 7.8 | 0.00 | 0.34 | 0.00 | 55 | 1017.3 |
| 20260510144205 | 55 | 42 | 3.5 | 11.3 | 0.00 | 0.34 | 0.00 | 53 | 1017.3 |
| 20260510143705 | 55 | 26 | 6.1 | 10.4 | 0.00 | 0.34 | 0.00 | 53 | 1017.3 |
| 20260510142705 | 55 | 29 | 6.1 | 10.4 | 0.00 | 0.34 | 0.00 | 52 | 1017.3 |
| 20260510142205 | 55 | 56 | 5.2 | 10.4 | 0.00 | 0.34 | 0.00 | 52 | 1017.3 |
| 20260510141205 | 55 | 22 | 6.1 | 10.4 | 0.00 | 0.34 | 0.00 | 54 | 1017.3 |
| 20260510140704 | 54 | 17 | 5.2 | 10.4 | 0.00 | 0.34 | 0.00 | 56 | 1017.3 |
| 20260510140204 | 53 | 43 | 2.6 | 7.0 | 0.00 | 0.34 | 0.00 | 57 | 1017.2 |
| 20260510135204 | 52 | 53 | 4.3 | 8.7 | 0.00 | 0.34 | 0.00 | 60 | 1017.0 |
| 20260510134705 | 52 | 35 | 6.1 | 8.7 | 0.00 | 0.34 | 0.00 | 57 | 1017.0 |
| 20260510134205 | 52 | 354 | 2.6 | 7.8 | 0.00 | 0.34 | 0.00 | 59 | 1017.0 |
| 20260510133205 | 52 | 43 | 3.5 | 8.7 | 0.00 | 0.34 | 0.00 | 60 | 1017.0 |
| 20260510132705 | 51 | 22 | 5.2 | 11.3 | 0.00 | 0.34 | 0.00 | 61 | 1017.0 |
| 20260510132205 | 51 | 23 | 3.5 | 11.3 | 0.00 | 0.34 | 0.00 | 63 | 1016.3 |
| 20260510131205 | 50 | 39 | 6.1 | 13.0 | 0.00 | 0.34 | 0.00 | 61 | 1016.3 |
| 20260510125205 | 50 | 37 | 6.1 | 11.3 | 0.00 | 0.34 | 0.00 | 67 | 1016.0 |
| 20260510124705 | 49 | 40 | 6.1 | 10.4 | 0.00 | 0.34 | 0.00 | 70 | 1016.0 |
| 20260510123704 | 48 | 66 | 4.3 | 7.8 | 0.00 | 0.34 | 0.00 | 72 | 1016.0 |
| 20260510123204 | 48 | 43 | 4.3 | 7.8 | 0.00 | 0.34 | 0.00 | 75 | 1015.8 |
| 20260510122704 | 48 | 39 | 4.3 | 7.8 | 0.00 | 0.34 | 0.00 | 74 | 1015.8 |
| 20260510122204 | 48 | 23 | 7.0 | 11.3 | 0.00 | 0.34 | 0.00 | 75 | 1015.5 |
| 20260510121704 | 48 | 30 | 5.2 | 8.7 | 0.00 | 0.34 | 0.00 | 76 | 1015.5 |
| 20260510121204 | 48 | 35 | 4.3 | 10.4 | 0.00 | 0.34 | 0.00 | 76 | 1015.5 |
| 20260510120704 | 48 | 18 | 2.6 | 10.4 | 0.00 | 0.34 | 0.00 | 77 | 1015.5 |
| 20260510115705 | 47 | 38 | 4.3 | 10.4 | 0.00 | 0.34 | 0.00 | 77 | 1015.5 |
| 20260510115204 | 47 | 12 | 3.5 | 7.0 | 0.00 | 0.34 | 0.00 | 78 | 1014.6 |
| 20260510114704 | 47 | 45 | 4.3 | 8.7 | 0.00 | 0.34 | 0.00 | 78 | 1014.6 |
| 20260510114204 | 47 | 44 | 4.3 | 10.4 | 0.00 | 0.34 | 0.00 | 78 | 1014.6 |
| 20260510113205 | 47 | 47 | 2.6 | 6.1 | 0.00 | 0.34 | 0.00 | 80 | 1014.6 |
| 20260510112704 | 47 | 38 | 1.7 | 7.0 | 0.00 | 0.34 | 0.00 | 81 | 1014.6 |
| 20260510111204 | 47 | 8 | 3.5 | 10.4 | 0.00 | 0.34 | 0.00 | 82 | 1014.3 |
| 20260510110704 | 47 | 44 | 3.5 | 7.8 | 0.00 | 0.34 | 0.00 | 83 | 1014.2 |
| 20260510110204 | 47 | 17 | 4.3 | 7.0 | 0.00 | 0.34 | 0.00 | 83 | 1014.2 |
| 20260510105204 | 47 | 54 | 0.9 | 7.0 | 0.00 | 0.34 | 0.00 | 86 | 1013.4 |
| 20260510104704 | 47 | 38 | 2.6 | 6.1 | 0.00 | 0.34 | 0.00 | 86 | 1013.4 |
| 20260510103705 | 47 | 12 | 2.6 | 7.8 | 0.00 | 0.34 | 0.00 | 86 | 1013.4 |
| 20260510103205 | 47 | 21 | 2.6 | 7.0 | 0.00 | 0.34 | 0.00 | 86 | 1013.4 |
| 20260510102704 | 47 | 23 | 1.7 | 6.1 | 0.00 | 0.34 | 0.00 | 86 | 1013.0 |
| 20260510101205 | 47 | 17 | 1.7 | 4.3 | 0.00 | 0.34 | 0.00 | 85 | 1013.0 |
| 20260510100204 | 47 | 37 | 0.0 | 7.0 | 0.00 | 0.34 | 0.00 | 85 | 1013.1 |
| 20260510095705 | 47 | 21 | 1.7 | 5.2 | 0.00 | 0.34 | 0.00 | 85 | 1013.0 |
| 20260510095205 | 47 | 27 | 3.5 | 6.1 | 0.00 | 0.34 | 0.00 | 85 | 1013.0 |
| 20260510094704 | 48 | 34 | 1.7 | 5.2 | 0.00 | 0.34 | 0.00 | 85 | 1013.0 |
| 20260510094204 | 48 | 28 | 2.6 | 6.1 | 0.00 | 0.34 | 0.00 | 85 | 1012.7 |
| 20260510093205 | 48 | 6 | 1.7 | 7.8 | 0.00 | 0.34 | 0.00 | 85 | 1012.6 |
| 20260510092705 | 48 | 40 | 2.6 | 8.7 | 0.00 | 0.34 | 0.00 | 85 | 1012.6 |
| 20260510091204 | 48 | 39 | 1.7 | 5.2 | 0.00 | 0.34 | 0.00 | 86 | 1012.1 |
| 20260510090705 | 48 | 19 | 0.9 | 2.6 | 0.00 | 0.34 | 0.00 | 85 | 1012.2 |
| 20260510090204 | 48 | 18 | 0.0 | 4.3 | 0.00 | 0.34 | 0.00 | 86 | 1011.9 |
| 20260510085705 | 48 | 29 | 0.0 | 0.0 | 0.00 | 0.34 | 0.00 | 85 | 1011.9 |
| 20260510085205 | 48 | 29 | 0.0 | 0.0 | 0.00 | 0.34 | 0.00 | 85 | 1011.9 |
| 20260510084705 | 48 | 29 | 0.0 | 0.0 | 0.00 | 0.34 | 0.00 | 84 | 1011.7 |
| 20260510084204 | 48 | 28 | 0.0 | 0.0 | 0.00 | 0.34 | 0.00 | 84 | 1011.7 |
| 20260510083704 | 48 | 38 | 0.0 | 0.0 | 0.00 | 0.34 | 0.00 | 83 | 1011.7 |
| 20260510083204 | 48 | 38 | 0.0 | 0.0 | 0.00 | 0.34 | 0.00 | 82 | 1011.7 |
| 20260510082704 | 48 | 40 | 0.0 | 0.0 | 0.00 | 0.34 | 0.00 | 81 | 1010.9 |
| 20260510082205 | 48 | 40 | 0.0 | 0.0 | 0.00 | 0.34 | 0.00 | 81 | 1010.9 |
| 20260510081704 | 49 | 40 | 0.0 | 0.0 | 0.00 | 0.34 | 0.00 | 81 | 1010.9 |
| 20260510081205 | 49 | 40 | 0.0 | 0.0 | 0.00 | 0.34 | 0.00 | 81 | 1010.9 |
| 20260510080704 | 49 | 40 | 0.0 | 0.0 | 0.00 | 0.34 | 0.00 | 81 | 1010.9 |
| 20260510075704 | 49 | 40 | 0.0 | 0.0 | 0.00 | 0.34 | 0.00 | 81 | 1010.9 |
| 20260510075204 | 49 | 40 | 0.0 | 0.0 | 0.00 | 0.34 | 0.00 | 81 | 1010.8 |
| 20260510073204 | 50 | 39 | 0.0 | 0.0 | 0.00 | 0.34 | 0.00 | 79 | 1010.6 |
| 20260510072704 | 50 | 33 | 0.0 | 0.0 | 0.00 | 0.34 | 0.00 | 79 | 1010.6 |
| 20260510072204 | 50 | 32 | 0.0 | 0.0 | 0.00 | 0.34 | 0.00 | 79 | 1010.5 |
| 20260510071704 | 50 | 32 | 0.0 | 0.9 | 0.00 | 0.34 | 0.00 | 79 | 1010.5 |
| 20260510071204 | 51 | 33 | 0.9 | 1.7 | 0.00 | 0.34 | 0.00 | 78 | 1010.5 |
| 20260510065204 | 51 | 51 | 1.7 | 7.0 | 0.00 | 0.34 | 0.00 | 78 | 1010.3 |
| 20260510064704 | 51 | 40 | 2.6 | 5.2 | 0.00 | 0.34 | 0.00 | 79 | 1010.3 |
| 20260510063705 | 51 | 64 | 2.6 | 5.2 | 0.00 | 0.34 | 0.00 | 79 | 1010.2 |
| 20260510062704 | 51 | 65 | 3.5 | 7.0 | 0.00 | 0.34 | 0.00 | 80 | 1010.2 |
| 20260510062204 | 51 | 69 | 2.6 | 7.8 | 0.00 | 0.34 | 0.00 | 80 | 1010.2 |
| 20260510061204 | 51 | 66 | 4.3 | 7.0 | 0.00 | 0.34 | 0.00 | 82 | 1010.3 |
| 20260510060704 | 51 | 40 | 1.7 | 6.1 | 0.00 | 0.34 | 0.00 | 82 | 1009.9 |
| 20260510055705 | 52 | 28 | 3.5 | 10.4 | 0.00 | 0.34 | 0.00 | 83 | 1009.9 |
| 20260510055205 | 52 | 50 | 7.8 | 12.2 | 0.00 | 0.34 | 0.00 | 83 | 1009.9 |
| 20260510054704 | 53 | 41 | 4.3 | 12.2 | 0.00 | 0.34 | 0.00 | 83 | 1009.9 |
| 20260510054204 | 54 | 19 | 7.8 | 11.3 | 0.00 | 0.34 | 0.00 | 85 | 1009.9 |
| 20260510053204 | 55 | 29 | 4.3 | 11.3 | 0.00 | 0.34 | 0.00 | 88 | 1009.4 |
| 20260510052705 | 55 | 49 | 1.7 | 4.3 | 0.00 | 0.34 | 0.00 | 88 | 1009.4 |
| 20260510052204 | 56 | 9 | 0.0 | 0.0 | 0.00 | 0.34 | 0.00 | 87 | 1009.1 |
| 20260510051704 | 56 | 9 | 0.0 | 0.0 | 0.00 | 0.34 | 0.00 | 87 | 1009.1 |
| 20260510051204 | 56 | 9 | 0.0 | 1.7 | 0.00 | 0.34 | 0.00 | 87 | 1009.0 |
| 20260510050704 | 56 | 305 | 0.0 | 2.6 | 0.00 | 0.34 | 0.00 | 87 | 1009.0 |
| 20260510050204 | 56 | 297 | 3.5 | 6.1 | 0.00 | 0.34 | 0.00 | 88 | 1009.0 |
| 20260510045705 | 55 | 305 | 0.0 | 6.1 | 0.00 | 0.34 | 0.00 | 88 | 1007.8 |
| 20260510045204 | 55 | 18 | 0.9 | 5.2 | 0.00 | 0.34 | 0.00 | 88 | 1007.8 |
| 20260510044704 | 55 | 8 | 2.6 | 6.1 | 0.00 | 0.34 | 0.00 | 88 | 1007.8 |
| 20260510044204 | 55 | 250 | 0.9 | 5.2 | 0.00 | 0.35 | 0.00 | 87 | 1007.8 |
| 20260510043704 | 55 | 207 | 0.0 | 2.6 | 0.00 | 0.35 | 0.00 | 87 | 1007.4 |
| 20260510043205 | 55 | 210 | 0.0 | 0.0 | 0.00 | 0.35 | 0.00 | 87 | 1007.4 |
| 20260510042204 | 56 | 181 | 0.0 | 0.0 | 0.00 | 0.35 | 0.00 | 86 | 1007.2 |
| 20260510041704 | 56 | 195 | 0.0 | 0.0 | 0.00 | 0.35 | 0.00 | 86 | 1007.2 |
| 20260510041205 | 56 | 180 | 0.0 | 0.9 | 0.00 | 0.35 | 0.00 | 85 | 1007.2 |
| 20260510040704 | 56 | 189 | 2.6 | 5.2 | 0.00 | 0.35 | 0.00 | 85 | 1007.2 |
| 20260510040205 | 56 | 236 | 0.0 | 4.3 | 0.00 | 0.35 | 0.00 | 85 | 1007.2 |
| 20260510034204 | 56 | 239 | 2.6 | 12.2 | 0.00 | 0.36 | 0.35 | 88 | 1007.2 |
| 20260510033704 | 56 | 205 | 0.0 | 5.2 | 0.00 | 0.36 | 0.35 | 89 | 1007.3 |
| 20260510033205 | 56 | 224 | 3.5 | 8.7 | 0.00 | 0.36 | 0.35 | 89 | 1007.5 |
| 20260510032205 | 55 | 251 | 1.7 | 11.3 | 0.00 | 0.36 | 0.35 | 89 | 1007.5 |
| 20260510031204 | 55 | 242 | 3.5 | 8.7 | 0.00 | 0.36 | 0.35 | 90 | 1007.4 |
| 20260510030704 | 55 | 235 | 0.9 | 8.7 | 0.00 | 0.36 | 0.35 | 91 | 1007.4 |
| 20260510030205 | 55 | 225 | 1.7 | 7.0 | 0.00 | 0.36 | 0.35 | 92 | 1007.2 |
| 20260510025205 | 55 | 191 | 1.7 | 4.3 | 0.00 | 0.36 | 0.35 | 92 | 1007.2 |
| 20260510024705 | 55 | 191 | 1.7 | 5.2 | 0.00 | 0.36 | 0.35 | 92 | 1007.2 |
| 20260510024204 | 55 | 187 | 1.7 | 4.3 | 0.00 | 0.36 | 0.35 | 92 | 1007.1 |
| 20260510023704 | 55 | 215 | 0.9 | 4.3 | 0.00 | 0.36 | 0.35 | 92 | 1007.1 |
| 20260510023204 | 55 | 238 | 1.7 | 10.4 | 0.00 | 0.36 | 0.35 | 93 | 1007.4 |
| 20260510022704 | 55 | 246 | 1.7 | 10.4 | 0.00 | 0.36 | 0.35 | 94 | 1006.8 |
| 20260510022204 | 54 | 212 | 4.3 | 10.4 | 0.00 | 0.36 | 0.35 | 94 | 1006.8 |
| 20260510021705 | 54 | 230 | 0.0 | 1.7 | 0.00 | 0.36 | 0.35 | 94 | 1006.8 |
| 20260510021204 | 54 | 186 | 0.0 | 0.0 | 0.00 | 0.36 | 0.35 | 94 | 1006.8 |
| 20260510020704 | 54 | 187 | 0.0 | 0.0 | 0.00 | 0.36 | 0.35 | 94 | 1006.8 |
| 20260510020204 | 54 | 185 | 0.0 | 0.0 | 0.00 | 0.36 | 0.35 | 93 | 1006.8 |
| 20260510015704 | 54 | 176 | 0.0 | 0.0 | 0.00 | 0.36 | 0.35 | 93 | 1006.8 |
| 20260510015204 | 54 | 153 | 0.0 | 0.0 | 0.00 | 0.36 | 0.35 | 93 | 1006.6 |
| 20260510014705 | 54 | 184 | 0.0 | 0.0 | 0.00 | 0.36 | 0.35 | 93 | 1006.6 |
| 20260510014205 | 54 | 202 | 0.0 | 0.0 | 0.00 | 0.36 | 0.35 | 93 | 1006.6 |
| 20260510013704 | 54 | 175 | 0.0 | 0.0 | 0.00 | 0.36 | 0.35 | 93 | 1006.6 |
| 20260510013204 | 54 | 177 | 0.0 | 0.0 | 0.00 | 0.36 | 0.35 | 93 | 1006.6 |
| 20260510012704 | 54 | 170 | 0.0 | 0.0 | 0.00 | 0.36 | 0.35 | 92 | 1006.5 |
| 20260510012205 | 54 | 184 | 0.0 | 0.0 | 0.00 | 0.36 | 0.35 | 92 | 1006.5 |
| 20260510011705 | 54 | 177 | 0.0 | 0.0 | 0.00 | 0.36 | 0.35 | 92 | 1006.5 |
| 20260510011204 | 54 | 184 | 0.0 | 0.0 | 0.00 | 0.36 | 0.35 | 92 | 1006.5 |
| 20260510010204 | 55 | 203 | 0.0 | 0.0 | 0.01 | 0.36 | 0.35 | 92 | 1006.5 |
| 20260510005705 | 55 | 219 | 0.0 | 0.0 | 0.01 | 0.37 | 0.35 | 92 | 1006.4 |
| 20260510004204 | 55 | 195 | 0.0 | 0.0 | 0.01 | 0.37 | 0.35 | 92 | 1006.4 |
| 20260510003205 | 55 | 202 | 0.0 | 0.0 | 0.01 | 0.37 | 0.35 | 91 | 1006.4 |
| 20260510002704 | 56 | 180 | 0.0 | 0.0 | 0.01 | 0.37 | 0.35 | 92 | 1006.3 |
| 20260510002204 | 56 | 230 | 0.0 | 0.9 | 0.01 | 0.37 | 0.35 | 92 | 1006.3 |
| 20260510001704 | 56 | 235 | 0.9 | 6.1 | 0.01 | 0.38 | 0.35 | 92 | 1006.3 |
| 20260510001205 | 56 | 245 | 1.7 | 5.2 | 0.01 | 0.38 | 0.35 | 92 | 1006.3 |
| 20260510000704 | 56 | 271 | 2.6 | 6.1 | 0.01 | 0.38 | 0.34 | 92 | 1006.4 |
| 20260510000205 | 56 | 250 | 1.7 | 8.7 | 0.01 | 0.38 | 0.34 | 93 | 1006.4 |
| 20260509235704 | 56 | 170 | 0.0 | 0.0 | 0.01 | 0.38 | 0.34 | 93 | 1006.4 |
| 20260509234704 | 56 | 198 | 3.5 | 6.1 | 0.08 | 0.39 | 0.34 | 92 | 1006.1 |
| 20260509234204 | 56 | 202 | 0.9 | 5.2 | 0.21 | 0.39 | 0.34 | 92 | 1006.3 |
| 20260509233705 | 56 | 197 | 2.6 | 7.8 | 0.31 | 0.40 | 0.34 | 92 | 1006.3 |
| 20260509233204 | 56 | 255 | 1.7 | 6.1 | 0.33 | 0.40 | 0.34 | 92 | 1006.3 |
| 20260509232704 | 56 | 225 | 2.6 | 7.0 | 0.33 | 0.41 | 0.34 | 92 | 1006.3 |
| 20260509231204 | 56 | 263 | 4.3 | 19.1 | 0.33 | 0.42 | 0.34 | 91 | 1006.3 |
| 20260509230704 | 56 | 271 | 3.5 | 8.7 | 0.32 | 0.42 | 0.33 | 91 | 1006.3 |
| 20260509225704 | 56 | 301 | 6.1 | 10.4 | 0.32 | 0.42 | 0.33 | 90 | 1006.2 |
| 20260509225204 | 56 | 296 | 6.1 | 13.9 | 0.30 | 0.41 | 0.31 | 88 | 1004.2 |
| 20260509224705 | 58 | 313 | 10.4 | 22.6 | 0.25 | 0.37 | 0.26 | 85 | 1004.2 |
| 20260509224205 | 60 | 311 | 17.4 | 27.8 | 0.12 | 0.26 | 0.13 | 79 | 1004.2 |
| 20260509223704 | 65 | 309 | 15.6 | 33.9 | 0.02 | 0.17 | 0.03 | 70 | 1004.2 |
| 20260509223205 | 67 | 280 | 7.8 | 15.6 | 0.00 | 0.16 | 0.01 | 60 | 1004.2 |
| 20260509222704 | 68 | 238 | 4.3 | 8.7 | 0.00 | 0.16 | 0.01 | 61 | 1003.7 |
| 20260509222205 | 68 | 266 | 5.2 | 8.7 | 0.00 | 0.16 | 0.01 | 56 | 1003.3 |
| 20260509221705 | 69 | 242 | 2.6 | 7.8 | 0.00 | 0.16 | 0.01 | 57 | 1003.6 |
| 20260509221204 | 69 | 221 | 5.2 | 11.3 | 0.00 | 0.17 | 0.01 | 56 | 1003.6 |
| 20260509220704 | 69 | 202 | 2.6 | 11.3 | 0.00 | 0.17 | 0.01 | 57 | 1003.8 |
| 20260509215704 | 69 | 241 | 5.2 | 13.0 | 0.00 | 0.18 | 0.01 | 56 | 1003.5 |
| 20260509214204 | 71 | 195 | 7.0 | 13.9 | 0.00 | 0.18 | 0.01 | 54 | 1003.5 |
| 20260509213705 | 72 | 237 | 6.1 | 20.9 | 0.00 | 0.18 | 0.01 | 54 | 1003.5 |
| 20260509212704 | 71 | 187 | 6.1 | 15.6 | 0.00 | 0.18 | 0.01 | 56 | 1003.6 |
| 20260509212205 | 71 | 237 | 7.8 | 17.4 | 0.00 | 0.18 | 0.01 | 55 | 1003.6 |
| 20260509211204 | 71 | 193 | 7.8 | 13.9 | 0.00 | 0.18 | 0.01 | 57 | 1003.6 |
| 20260509210704 | 71 | 194 | 7.0 | 19.1 | 0.00 | 0.18 | 0.01 | 57 | 1003.6 |
| 20260509210205 | 71 | 235 | 7.8 | 17.4 | 0.00 | 0.18 | 0.01 | 56 | 1003.6 |
| 20260509205705 | 71 | 207 | 6.1 | 17.4 | 0.00 | 0.18 | 0.01 | 58 | 1004.1 |
| 20260509204704 | 71 | 178 | 3.5 | 13.0 | 0.00 | 0.18 | 0.01 | 60 | 1004.1 |
| 20260509204205 | 71 | 244 | 4.3 | 11.3 | 0.00 | 0.18 | 0.01 | 56 | 1004.1 |
| 20260509203205 | 71 | 234 | 6.1 | 13.0 | 0.00 | 0.18 | 0.01 | 55 | 1004.2 |
| 20260509202705 | 71 | 195 | 5.2 | 19.1 | 0.00 | 0.19 | 0.01 | 58 | 1004.6 |
| 20260509202204 | 70 | 246 | 6.1 | 13.0 | 0.00 | 0.19 | 0.01 | 57 | 1004.6 |
| 20260509201704 | 70 | 245 | 6.1 | 10.4 | 0.00 | 0.19 | 0.01 | 56 | 1004.6 |
| 20260509201204 | 70 | 191 | 8.7 | 18.2 | 0.00 | 0.19 | 0.01 | 57 | 1004.6 |
| 20260509200704 | 71 | 225 | 7.8 | 15.6 | 0.00 | 0.19 | 0.01 | 55 | 1004.6 |
| 20260509200205 | 71 | 237 | 6.1 | 15.6 | 0.00 | 0.19 | 0.01 | 56 | 1004.9 |
| 20260509195704 | 71 | 193 | 4.3 | 10.4 | 0.00 | 0.19 | 0.01 | 57 | 1004.9 |
| 20260509194705 | 71 | 187 | 5.2 | 12.2 | 0.00 | 0.19 | 0.01 | 59 | 1004.9 |
| 20260509193705 | 71 | 242 | 6.1 | 13.0 | 0.00 | 0.19 | 0.01 | 58 | 1005.3 |
| 20260509193204 | 71 | 192 | 7.0 | 17.4 | 0.00 | 0.19 | 0.01 | 58 | 1005.3 |
| 20260509192205 | 71 | 181 | 7.0 | 13.9 | 0.00 | 0.19 | 0.01 | 61 | 1005.3 |
| 20260509191704 | 70 | 204 | 4.3 | 13.0 | 0.00 | 0.19 | 0.01 | 60 | 1005.3 |
| 20260509191204 | 70 | 252 | 0.9 | 12.2 | 0.00 | 0.19 | 0.01 | 59 | 1005.3 |
| 20260509190705 | 69 | 202 | 6.1 | 13.9 | 0.00 | 0.19 | 0.01 | 62 | 1005.7 |
| 20260509190204 | 69 | 224 | 6.1 | 13.9 | 0.00 | 0.19 | 0.01 | 60 | 1005.7 |
| 20260509185704 | 69 | 232 | 6.1 | 13.0 | 0.00 | 0.19 | 0.01 | 64 | 1005.7 |
| 20260509185205 | 68 | 186 | 4.3 | 10.4 | 0.00 | 0.19 | 0.01 | 62 | 1005.7 |
| 20260509184704 | 69 | 236 | 6.1 | 13.9 | 0.00 | 0.19 | 0.01 | 61 | 1005.7 |
| 20260509184205 | 69 | 244 | 5.2 | 10.4 | 0.00 | 0.19 | 0.01 | 61 | 1005.7 |
| 20260509183704 | 68 | 194 | 7.8 | 13.9 | 0.00 | 0.19 | 0.01 | 65 | 1006.0 |
| 20260509183204 | 67 | 223 | 5.2 | 11.3 | 0.00 | 0.19 | 0.01 | 64 | 1006.0 |
| 20260509182705 | 67 | 209 | 4.3 | 11.3 | 0.00 | 0.19 | 0.01 | 63 | 1006.0 |
| 20260509182205 | 68 | 201 | 4.3 | 10.4 | 0.00 | 0.19 | 0.01 | 62 | 1006.0 |
| 20260509181705 | 68 | 197 | 2.6 | 12.2 | 0.00 | 0.19 | 0.01 | 61 | 1006.0 |
| 20260509180205 | 68 | 203 | 6.1 | 11.3 | 0.00 | 0.19 | 0.01 | 64 | 1006.0 |
| 20260509175704 | 68 | 216 | 6.1 | 13.0 | 0.00 | 0.19 | 0.01 | 62 | 1006.0 |
| 20260509175205 | 68 | 237 | 5.2 | 12.2 | 0.00 | 0.19 | 0.01 | 65 | 1006.0 |
| 20260509174704 | 67 | 187 | 0.9 | 11.3 | 0.00 | 0.19 | 0.01 | 66 | 1006.0 |
| 20260509173705 | 67 | 175 | 4.3 | 12.2 | 0.00 | 0.19 | 0.01 | 66 | 1006.0 |
| 20260509173204 | 68 | 250 | 5.2 | 12.2 | 0.00 | 0.19 | 0.01 | 62 | 1006.0 |
| 20260509172705 | 68 | 217 | 6.1 | 12.2 | 0.00 | 0.19 | 0.01 | 62 | 1006.0 |
| 20260509171705 | 68 | 196 | 0.9 | 7.8 | 0.00 | 0.19 | 0.01 | 68 | 1006.0 |
| 20260509171204 | 67 | 179 | 5.2 | 13.0 | 0.00 | 0.19 | 0.01 | 67 | 1006.0 |
| 20260509165705 | 65 | 223 | 4.3 | 8.7 | 0.00 | 0.19 | 0.01 | 66 | 1006.1 |
| 20260509165204 | 66 | 246 | 4.3 | 11.3 | 0.00 | 0.19 | 0.01 | 66 | 1006.0 |
| 20260509164704 | 65 | 198 | 4.3 | 8.7 | 0.00 | 0.19 | 0.01 | 68 | 1006.0 |